Preview of NWS' New Version of Forecast
This preview is not operational and should not be used for support decisions.

Regional Weather Roundup (RWR)

Issued by National Weather Service (NWS)

                            
000
ASUS44 KMEG 260300
RWRTN 
TENNESSEE HOURLY STATE WEATHER ROUNDUP
NATIONAL WEATHER SERVICE MEMPHIS TN
1000 PM CDT SUN AUG 25 2019

TNZ002-004-019-021-049-052-054-088>092-260400-
WEST TENNESSEE
  
CITY           SKY/WX    TMP DP  RH WIND       PRES   REMARKS
MEMPHIS INTL   LGT RAIN  77  74  90 SE10      29.88S                  
NWS MEMPHIS      N/A     75 N/A N/A MISG        N/A                   
JACKSON        LGT RAIN  72  72 100 E5        29.95R                  
DYERSBURG      LGT RAIN  73  71  93 SE9G18    29.93R                  
HUNTINGDON     CLOUDY    72  72 100 S10       29.95R FOG              
LEXINGTON      CLOUDY    73  72  94 CALM      29.96S FOG              
SELMER         CLOUDY    72  70  94 S7        29.94R FOG              
$$

TNZ008-025-027-028-033-062-065-066-260400-
NORTH MIDDLE TENNESSEE
  
CITY           SKY/WX    TMP DP  RH WIND       PRES   REMARKS
NASHVILLE      CLOUDY    74  70  87 S7        29.99R                  
PORTLAND       CLOUDY    72  72 100 S9        29.98R FOG              
CLARKSVILLE    LGT RAIN  73  72  96 SE5       29.95R                  
LEBANON        CLOUDY    72  70  94 S5        29.98R                  
SMYRNA         LGT RAIN  72  71  97 SE6       30.00R                  
MURFREESBORO   CLOUDY    73  70  88 S8        29.98S                  
COOKEVILLE     CLOUDY    73  66  78 VRB6      30.02S                  
LIVINGSTON     CLOUDY    72  68  88 CALM      30.03S                  
GALLATIN       CLOUDY    72  72 100 CALM      30.02S FOG              
CROSSVILLE     CLOUDY    69  65  86 S5        30.08S                  
$$

TNZ061-075-076-078-094-096-097-260400-
SOUTH MIDDLE TENNESSEE
  
CITY           SKY/WX    TMP DP  RH WIND       PRES   REMARKS
LEWISBURG      CLOUDY    72  70  94 SE3       29.99R                  
FAYETTEVILLE   CLOUDY    72  70  94 SE7       30.00S FOG              
TULLAHOMA      CLOUDY    70  68  94 SE7       30.01S                  
WINCHESTER     CLOUDY    73  66  78 S6G13     30.02R                  
$$

TNZ017-018-042-046-047-260400-
NORTHEAST TENNESSEE
  
CITY           SKY/WX    TMP DP  RH WIND       PRES   REMARKS
TRI CITIES     MOCLDY    70  58  65 E6        30.12R                  
$$

TNZ012-013-036-069-073-074-260400-
CENTRAL EAST TENNESSEE
  
CITY           SKY/WX    TMP DP  RH WIND       PRES   REMARKS
KNOXVILLE      CLOUDY    71  69  93 CALM      30.05R                  
OAK RIDGE      CLOUDY    74  67  78 CALM      30.06S                  
MORRISTOWN     CLOUDY    70  61  73 E6        30.07S                  
JACKSBORO      CLOUDY    72  70  94 CALM      30.10S                  
$$

TNZ083-085-099-260400-
SOUTHEAST TENNESSEE
  
CITY           SKY/WX    TMP DP  RH WIND       PRES   REMARKS
CHATTANOOGA    CLOUDY    75  66  73 VRB7      30.05S                  
$$

SKY/WX REPORTED AS FAIR MEANS FEW OR NO CLOUDS BELOW
12 THOUSAND FEET.